TimeEST,TemperatureF,Dew PointF,Humidity,Sea Level PressureIn,VisibilityMPH,Wind Direction,Wind SpeedMPH,Gust SpeedMPH,PrecipitationIn,Events,Conditions,WindDirDegrees,DateUTC
12:55 AM,25.0,14.0,63,30.07,10.0,SW,12.7,-,N/A,,Partly Cloudy,230,2012-11-13 05:55:00
1:55 AM,25.0,15.1,66,30.10,10.0,WSW,11.5,-,N/A,,Mostly Cloudy,240,2012-11-13 06:55:00
2:55 AM,25.0,16.0,69,30.13,10.0,WSW,10.4,-,N/A,,Mostly Cloudy,240,2012-11-13 07:55:00
3:55 AM,25.0,17.1,72,30.14,10.0,WSW,11.5,-,N/A,,Clear,240,2012-11-13 08:55:00
4:55 AM,24.1,16.0,71,30.16,10.0,WSW,10.4,-,N/A,,Clear,250,2012-11-13 09:55:00
5:55 AM,24.1,17.1,75,30.19,10.0,SW,6.9,-,N/A,,Overcast,220,2012-11-13 10:55:00
6:55 AM,25.0,19.0,78,30.22,3.0,WSW,11.5,-,0.00,Snow,Light Snow,240,2012-11-13 11:55:00
7:55 AM,26.1,19.9,78,30.24,9.0,WSW,9.2,-,0.00,,Overcast,240,2012-11-13 12:55:00
8:55 AM,30.0,23.0,75,30.27,10.0,WSW,10.4,-,0.00,,Mostly Cloudy,240,2012-11-13 13:55:00
9:07 AM,30.0,23.0,75,30.25,10.0,WSW,9.2,-,N/A,,Mostly Cloudy,250,2012-11-13 14:07:00
9:41 AM,30.9,25.0,79,30.26,5.0,WSW,10.4,-,0.00,Snow,Light Snow,250,2012-11-13 14:41:00
9:55 AM,30.9,26.1,82,30.30,2.5,West,11.5,-,0.00,Snow,Light Snow,260,2012-11-13 14:55:00
10:03 AM,32.0,26.1,79,30.28,7.0,West,9.2,-,0.00,Snow,Light Snow,260,2012-11-13 15:03:00
10:51 AM,33.8,26.6,75,30.30,10.0,West,10.4,19.6,0.00,,Overcast,270,2012-11-13 15:51:00
10:55 AM,35.1,28.0,76,30.32,10.0,West,8.1,-,0.00,,Overcast,280,2012-11-13 15:55:00
11:38 AM,37.0,30.0,76,30.30,10.0,West,12.7,20.7,N/A,,Overcast,270,2012-11-13 16:38:00
11:55 AM,37.0,28.9,73,30.32,10.0,West,13.8,20.7,N/A,,Mostly Cloudy,280,2012-11-13 16:55:00
12:33 PM,37.9,28.9,70,30.30,10.0,WNW,11.5,19.6,N/A,,Scattered Clouds,290,2012-11-13 17:33:00
12:50 PM,39.2,28.4,65,30.30,10.0,West,12.7,19.6,N/A,,Mostly Cloudy,270,2012-11-13 17:50:00
12:55 PM,39.0,30.0,70,30.33,10.0,West,13.8,19.6,N/A,,Mostly Cloudy,260,2012-11-13 17:55:00
1:55 PM,37.0,28.9,73,30.35,9.0,WNW,12.7,-,0.00,,Mostly Cloudy,290,2012-11-13 18:55:00
2:46 PM,37.9,28.0,68,30.32,10.0,WNW,12.7,21.9,N/A,,Mostly Cloudy,290,2012-11-13 19:46:00
2:55 PM,37.9,28.9,70,30.35,8.0,NW,9.2,-,0.00,Snow,Light Snow,310,2012-11-13 19:55:00
3:55 PM,37.9,28.9,70,30.36,10.0,NW,5.8,-,0.00,,Clear,310,2012-11-13 20:55:00
4:55 PM,36.0,27.0,70,30.38,10.0,Calm,Calm,-,N/A,,Mostly Cloudy,0,2012-11-13 21:55:00
5:55 PM,34.0,21.0,59,30.41,10.0,SW,10.4,-,N/A,,Clear,220,2012-11-13 22:55:00
6:55 PM,32.0,21.9,66,30.43,10.0,SW,6.9,-,N/A,,Clear,220,2012-11-13 23:55:00
7:55 PM,30.0,21.9,72,30.45,10.0,South,4.6,-,N/A,,Scattered Clouds,190,2012-11-14 00:55:00
8:55 PM,30.9,23.0,72,30.44,10.0,South,4.6,-,N/A,,Mostly Cloudy,180,2012-11-14 01:55:00
9:55 PM,30.9,23.0,72,30.44,10.0,SSE,5.8,-,N/A,,Mostly Cloudy,160,2012-11-14 02:55:00
10:55 PM,30.9,23.0,72,30.45,10.0,South,5.8,-,N/A,,Overcast,170,2012-11-14 03:55:00
11:55 PM,32.0,23.0,69,30.45,10.0,SSE,6.9,-,N/A,,Overcast,160,2012-11-14 04:55:00